Location: Mentone
(34.5413°N, 85.5351°W)
Time: 03:41:30
(UTC-05:00)

Tiros 1 despin weight - Visible Passes

Search period start: 25 April 2017 00:00
Search period end: 05 May 2017 00:00
Orbit: 595 x 644 km, 48.2° (Epoch: 23 April)

Date Brightness Start Highest point End Pass type
(mag) Time Alt. Az. Time Alt. Az. Time Alt. Az.
25 Apr ? 20:35:10 10° NW 20:39:05 26° NNE 20:41:51 15° ENE visible
25 Apr ? 22:16:26 10° NW 22:18:56 31° WNW 22:18:56 31° WNW visible
26 Apr ? 20:51:59 10° NW 20:56:24 41° NNE 20:58:07 29° ENE visible
26 Apr ? 22:33:45 10° WNW 22:35:12 18° W 22:35:12 18° W visible
27 Apr ? 21:08:53 10° NW 21:13:33 76° NE 21:14:25 56° ESE visible
28 Apr ? 19:44:34 10° NW 19:48:45 31° NNE 19:52:52 10° E visible
28 Apr ? 21:26:00 10° WNW 21:30:31 53° SW 21:30:47 52° SSW visible
29 Apr ? 20:01:24 10° NW 20:05:59 53° NNE 20:10:06 12° ESE visible
29 Apr ? 21:43:33 10° WNW 21:47:12 25° SW 21:47:12 25° SW visible
30 Apr ? 20:18:22 10° NW 20:23:03 80° SW 20:26:35 17° SE visible
30 Apr ? 22:02:36 10° WSW 22:03:41 11° WSW 22:03:41 11° WSW visible
01 May ? 20:35:38 10° WNW 20:39:57 38° SW 20:43:09 16° SSE visible
02 May ? 20:53:33 10° W 20:56:41 18° SW 20:59:46 10° S visible
